Lid_Strength_Index
2 2 2 3 3 5 5 7 8 9 9 8 7 6 6 6 5 3 3 3 0 1 2 5 4 4 2 2 1 0 0 0 -0 -1 -1 -1 -0 -0
2 2 2 3 2 2 6 6 8 9 9 9 8 7 7 7 6 4 5 4 3 2 4 4 4 3 3 2 1 0 -1 -1 -1 -1 -1 -1 -0 0
3 3 3 3 3 3 3 5 7 8 10 8 9 8 8 7 7 5 7 7 6 3 5 3 4 4 3 2 1 0 -1 -1 -1 -1 -1 -1 0 1
2 3 3 2 3 4 4 4 5 6 8 8 8 8 8 9 8 8 8 8 7 5 4 3 4 3 3 3 3 1 1 -0 -0 -0 -1 -1 0 1
2 2 2 2 3 3 3 3 3 4 6 7 5 7 7 8 8 9 9 7 6 4 4 3 4 4 4 4 3 3 3 2 1 1 0 -0 -0 1
2 2 2 2 2 3 3 3 3 4 5 5 5 5 6 6 8 8 8 8 7 4 4 5 5 4 4 4 3 2 3 4 3 3 2 2 2 2
1 1 2 2 3 3 2 3 3 3 3 3 3 3 4 5 7 7 8 9 9 7 7 7 7 7 8 6 5 3 3 3 2 3 3 3 3 3
1 1 2 2 2 4 4 4 3 2 3 3 3 3 3 3 6 8 8 10 10 7 8 8 7 7 8 8 5 3 3 3 2 2 3 3 4 4
1 1 1 1 2 1 3 4 4 5 4 2 3 3 3 2 6 8 9 9 8 8 8 8 8 9 9 8 5 4 4 4 3 2 3 3 4 5
1 1 2 2 2 2 2 2 2 2 3 3 2 2 2 2 5 6 7 9 8 8 8 9 9 11 10 9 6 4 5 5 3 3 3 4 5 6
1 2 2 1 3 6 3 3 2 2 3 5 5 5 5 6 6 9 9 9 10 9 8 9 11 11 11 10 9 5 6 6 5 4 3 4 5 6
1 1 4 3 5 8 4 3 3 2 3 4 5 6 6 7 8 6 8 9 10 11 9 10 13 12 13 11 9 9 9 7 7 5 5 5 6 7
2 2 1 6 9 10 10 4 4 3 4 5 4 5 8 8 8 8 7 8 10 9 10 10 12 12 12 11 10 9 10 10 9 8 7 7 6 6
2 2 2 8 10 11 11 10 10 9 6 6 6 7 9 9 8 8 7 8 8 9 9 10 10 11 12 11 11 10 10 11 11 11 9 8 7 7
2 3 6 9 12 11 12 11 12 8 6 5 5 6 9 7 8 8 8 9 9 9 9 9 10 10 11 11 10 10 10 11 12 12 10 10 9 8
6 4 6 8 9 7 7 9 8 6 5 5 6 7 9 9 9 8 9 9 9 9 8 10 9 11 11 10 10 10 11 12 14 14 13 11 11 10
6 4 3 5 4 4 4 5 5 6 6 6 7 8 10 9 9 9 10 9 10 9 9 9 8 10 9 9 10 10 12 14 14 14 13 13 12 11
6 4 4 3 3 3 3 2 3 4 4 5 7 7 9 10 10 10 10 10 9 10 10 10 10 11 10 11 8 13 14 14 15 14 14 14 14 12
6 4 4 3 3 3 2 2 2 4 5 6 7 8 9 9 10 10 10 10 10 10 9 10 11 11 12 13 14 11 14 14 15 15 14 14 14 13
6 5 3 2 2 2 2 2 3 5 6 7 7 8 9 10 10 10 10 10 10 10 10 11 12 12 12 13 14 14 11 15 15 15 15 14 13 10
5 5 4 3 2 2 2 3 4 5 6 7 7 8 8 9 10 9 9 11 11 10 11 11 11 10 13 13 13 14 15 11 13 15 15 15 15 14
5 3 3 3 3 3 3 4 5 6 6 7 8 8 8 8 9 9 9 9 10 10 10 10 13 13 13 13 14 14 15 15 13 11 11 12 15 15
6 5 5 5 4 5 5 5 6 7 7 7 8 8 7 9 8 8 8 8 9 9 10 11 12 13 13 13 14 15 15 16 16 16 15 11 10 10